Theta_e
309 308 309 309 310 310 311 313 314 314 315 319 322 324 324 321 320 320 319 317 318 320 318 317 318 317 316 317 316 317 318 316 316 318 317 318 318 318 319 320 319 320 319 319 319 318 317 317 317 317 318 318 317 317 318 318 319 319 320 321 323 325 324 317 314 318 320 322 323 322 323 324 322 322 323 323 321 318 317 316 317 315 313 316 318 316 329
310 308 309 309 310 310 311 313 315 316 316 317 322 327 323 319 320 320 319 317 318 319 318 317 317 317 316 317 316 316 317 317 317 318 318 318 319 319 319 319 320 320 319 319 319 318 316 316 317 318 318 318 317 317 318 319 321 322 323 325 324 322 323 320 315 316 317 317 319 319 320 322 321 322 325 324 323 324 322 321 321 317 313 316 317 315 328
311 308 309 309 310 310 311 313 315 317 317 317 322 328 323 319 320 319 318 318 318 318 317 317 317 317 317 317 316 316 316 316 317 318 318 319 318 319 319 319 319 319 319 319 318 318 317 316 317 319 318 318 318 317 318 319 320 323 326 329 325 322 324 323 317 314 314 315 316 315 317 320 321 322 325 326 325 324 321 318 316 314 315 318 315 315 333
312 308 308 309 310 310 310 313 315 317 318 319 322 328 324 319 320 318 317 317 317 317 317 317 316 317 318 317 316 316 316 316 317 317 318 318 318 319 319 319 319 319 319 319 318 318 318 317 318 320 319 318 317 317 319 317 319 327 329 326 326 325 325 326 322 317 316 318 318 320 320 320 319 321 325 326 326 327 325 317 313 315 318 317 317 322 334
315 310 308 309 310 310 310 312 315 318 319 319 322 326 323 320 320 320 320 318 317 317 317 316 317 316 317 318 317 317 316 316 317 318 318 318 318 318 318 319 320 319 320 320 318 318 319 318 319 319 319 319 317 317 318 317 322 330 329 322 324 324 320 323 324 319 319 321 321 322 323 322 321 323 325 327 329 329 324 317 319 324 316 314 326 332 329
316 313 308 308 310 310 310 312 314 318 319 319 323 326 323 322 323 323 323 321 318 318 318 317 317 316 317 318 318 317 316 317 317 317 317 317 317 318 319 319 319 320 321 320 320 320 319 318 320 320 319 319 319 317 318 317 320 325 322 319 325 324 318 321 322 318 320 322 320 322 324 324 326 327 326 329 331 329 326 323 330 335 322 320 336 338 327
316 316 310 308 309 310 310 311 314 317 318 321 327 329 324 324 324 323 324 324 321 320 320 318 316 317 319 319 318 317 317 317 317 316 317 317 316 318 319 318 318 319 320 321 321 322 320 318 320 322 320 319 319 318 318 318 318 319 319 321 325 322 319 324 324 319 319 321 321 322 323 323 325 327 329 331 333 332 333 334 338 340 334 332 339 341 338
315 316 313 309 308 310 310 311 313 316 319 325 329 328 326 326 326 326 324 323 322 320 319 318 317 317 320 319 317 317 316 316 316 316 317 318 317 317 318 318 318 318 319 320 320 321 321 320 321 321 321 320 320 320 319 318 319 319 319 322 324 321 320 325 325 319 317 320 321 321 322 321 321 324 329 331 333 333 336 339 340 339 339 342 341 342 347
315 316 315 311 308 309 310 310 313 315 319 327 328 325 327 328 327 329 328 322 323 322 317 318 319 317 318 319 317 317 316 316 317 316 316 318 318 318 317 317 318 318 319 319 318 317 319 320 318 319 319 319 319 320 319 319 319 319 320 320 322 322 321 322 323 317 315 319 321 320 320 320 318 321 327 330 330 332 335 340 342 340 340 343 339 337 345
314 316 316 313 309 309 310 310 313 316 319 325 327 325 327 329 327 330 332 324 322 322 317 317 319 318 318 319 319 318 316 316 317 317 316 317 317 317 318 318 318 319 319 318 317 316 316 317 316 316 317 317 317 318 317 318 319 319 320 320 321 323 321 319 319 317 315 318 320 319 318 317 316 320 327 331 332 333 336 339 342 343 343 341 336 338 348
314 315 316 314 310 308 309 310 313 318 320 322 325 325 325 329 330 331 331 324 320 320 317 318 318 317 318 318 318 317 316 315 317 318 317 315 315 316 317 318 319 319 317 317 317 316 315 316 316 317 317 317 317 317 317 318 318 318 319 320 321 322 321 320 320 317 316 318 320 319 317 316 317 321 327 331 331 332 335 339 340 342 342 341 340 344 350
314 314 315 315 312 308 309 309 311 318 321 320 323 325 323 325 330 333 330 323 319 319 318 318 319 317 316 317 316 316 316 315 316 317 317 316 315 315 316 318 320 318 317 316 316 315 315 316 317 317 317 317 317 317 317 318 318 317 317 318 320 322 320 320 321 318 317 319 319 316 316 317 320 322 324 327 329 330 336 341 341 341 341 342 343 345 347
314 314 314 315 313 309 308 308 310 315 320 321 323 324 322 322 328 333 331 324 318 318 318 317 318 317 315 316 317 316 316 316 315 316 317 316 316 315 314 316 318 317 316 316 316 316 317 318 317 317 317 317 318 318 318 318 317 317 317 317 318 321 321 320 318 318 318 318 316 317 319 320 321 321 322 325 328 330 333 337 338 339 341 343 344 345 346
313 313 314 315 315 311 308 308 309 311 317 321 322 323 322 323 327 330 331 328 321 319 320 317 317 317 317 316 316 315 315 316 316 317 317 317 317 316 314 315 316 317 316 317 318 318 318 319 318 317 318 318 318 318 319 318 317 317 318 318 317 319 322 320 317 317 318 314 314 319 321 320 320 322 323 325 326 327 329 331 335 339 341 342 344 345 345
314 313 313 314 315 313 310 308 308 309 313 318 321 323 323 322 323 327 331 330 324 319 319 320 317 317 318 316 316 317 316 317 318 317 317 318 317 316 315 315 316 317 317 318 319 320 319 318 316 315 315 316 316 317 319 319 318 316 316 318 318 318 321 323 319 317 317 314 315 319 319 318 321 323 323 324 324 323 325 329 334 339 340 341 343 344 344
315 314 314 314 315 315 312 309 308 309 311 314 318 323 324 320 319 325 329 329 325 320 320 322 319 318 318 317 317 318 318 319 320 319 319 320 319 317 316 316 317 317 317 318 319 320 319 317 315 313 315 317 317 317 319 318 317 316 316 318 319 318 320 322 319 315 316 314 314 316 318 321 325 325 323 323 322 322 324 326 329 335 339 340 341 342 342
314 314 314 314 314 315 314 311 308 308 310 311 312 319 324 321 318 322 327 327 325 322 320 321 320 319 319 318 318 318 319 319 320 320 321 320 320 319 318 317 316 317 317 319 319 318 317 316 314 312 316 321 320 318 318 318 316 317 316 317 319 319 318 319 316 314 315 314 313 315 320 324 327 325 323 322 322 322 323 323 325 330 335 339 340 341 341
313 313 314 315 314 315 315 313 310 307 310 310 309 315 323 321 316 319 325 325 323 322 320 320 320 320 320 320 319 319 319 319 320 321 320 320 321 321 319 318 317 317 318 319 320 319 317 316 315 313 316 323 323 319 318 318 317 317 317 317 319 318 317 316 315 314 314 313 312 315 321 326 326 325 323 322 322 320 319 321 325 326 329 336 339 339 341
312 313 314 315 314 314 315 315 311 308 309 310 310 316 322 320 315 318 324 324 321 322 321 320 321 320 320 320 320 319 319 320 320 320 320 321 322 320 318 319 319 318 318 319 320 320 317 317 318 317 317 320 322 319 318 318 319 319 319 318 317 318 316 315 315 315 314 314 313 314 321 326 326 325 324 325 323 321 321 324 327 325 328 335 338 337 338
312 314 315 314 314 314 315 316 312 308 308 310 310 314 319 317 313 315 320 323 323 322 320 319 320 321 320 319 320 319 318 319 320 320 320 322 322 320 319 321 321 319 318 319 320 320 318 317 319 319 317 319 320 319 318 319 321 322 321 319 318 319 317 314 314 316 315 313 312 314 320 325 327 326 327 328 326 325 325 327 327 327 330 335 336 337 337
313 315 315 314 314 314 315 317 313 307 308 310 309 312 319 318 313 313 317 321 323 322 320 319 320 321 322 322 322 322 321 320 320 320 319 322 323 322 321 322 321 320 320 320 320 320 320 320 320 320 319 320 320 320 319 319 320 322 323 321 319 321 319 316 317 318 316 313 315 319 323 325 325 326 327 327 325 325 325 326 327 328 332 334 334 335 336
313 315 315 314 314 313 315 317 314 307 308 310 309 312 320 320 315 313 315 320 323 323 320 318 319 321 323 322 323 324 323 321 321 321 320 321 323 323 322 322 322 322 321 321 320 320 320 321 320 320 320 320 319 321 321 318 318 321 322 320 320 323 324 322 321 321 319 319 322 324 326 325 324 324 324 324 324 324 324 326 327 329 332 333 333 334 334
313 314 315 315 314 313 315 317 314 308 308 310 310 313 319 320 316 314 317 321 324 322 319 320 321 321 321 320 320 321 320 319 320 321 320 319 321 321 321 322 322 322 322 323 324 322 320 322 321 321 321 320 320 321 321 319 318 322 322 320 321 324 324 323 324 322 321 323 325 325 326 325 324 323 323 323 324 324 325 327 329 330 331 332 332 332 330
313 314 315 315 314 313 314 317 315 309 307 310 310 311 316 317 315 316 320 322 321 319 318 319 320 320 320 320 320 319 318 318 319 319 318 319 319 320 321 322 322 322 323 325 325 323 321 322 322 320 321 322 321 320 319 319 320 322 321 319 321 323 322 323 324 322 320 323 326 326 325 325 324 324 324 324 323 323 325 328 330 330 330 331 330 330 329
312 313 314 315 315 314 314 316 315 310 307 310 310 311 317 320 317 317 321 322 319 319 320 318 319 321 320 319 320 320 319 318 318 317 318 319 319 319 322 323 323 324 325 324 323 322 321 322 321 320 321 323 322 320 320 320 321 322 321 321 322 323 322 323 323 321 321 325 327 325 324 324 324 324 324 323 323 324 325 327 329 330 330 330 330 329 329
311 313 314 314 315 314 315 317 316 310 307 310 311 313 319 321 317 318 322 324 320 319 320 320 320 320 320 319 320 321 319 318 318 319 319 320 318 320 322 323 323 324 325 323 322 322 322 322 321 320 321 322 321 321 321 322 322 322 321 322 323 323 322 323 323 321 322 325 326 325 325 325 324 323 324 324 324 323 323 324 326 328 328 328 329 329 329
311 312 313 314 315 314 315 317 315 309 307 310 311 314 319 320 318 319 322 324 322 317 316 320 321 319 320 321 321 321 320 318 319 320 320 320 320 321 323 323 322 323 322 321 321 321 320 320 320 319 321 322 322 322 322 322 322 321 321 323 323 321 321 323 322 320 321 324 326 326 326 327 325 323 324 325 324 323 323 322 323 324 325 326 327 327 328
310 312 313 314 314 314 315 316 313 308 308 310 311 313 317 318 318 318 318 320 323 321 317 319 321 319 319 321 322 321 320 318 319 320 320 320 321 321 321 322 322 321 320 321 321 320 320 320 319 320 321 322 322 322 323 322 322 321 322 322 322 322 324 324 322 322 324 326 326 326 326 326 325 323 323 324 325 325 324 324 323 322 323 324 324 325 326
310 312 314 314 314 314 315 314 310 307 308 311 313 316 319 319 319 319 317 318 322 324 321 319 319 319 319 321 322 321 319 318 319 320 320 320 320 321 321 322 321 320 320 321 321 321 321 320 320 322 323 323 323 323 322 322 321 322 324 324 324 325 326 326 325 325 325 326 325 326 326 325 324 323 323 324 324 324 324 324 324 324 323 323 324 323 324
311 312 314 315 314 314 314 312 308 307 309 313 317 321 322 321 320 319 317 316 319 324 324 319 318 319 321 323 323 321 319 318 319 320 321 321 321 322 322 322 322 322 321 322 322 323 322 322 322 323 324 325 324 323 323 322 323 324 325 325 325 326 326 325 326 326 326 325 325 325 325 324 323 323 323 323 324 324 324 323 323 324 324 324 324 324 323
311 312 314 315 314 314 313 310 308 308 310 315 321 322 319 322 323 319 316 315 318 322 324 320 319 320 321 323 324 323 320 319 320 321 322 322 322 322 322 322 322 322 322 322 323 323 322 323 324 324 324 324 323 323 324 323 323 324 325 325 325 325 325 324 325 325 325 325 324 324 324 323 323 323 323 322 323 323 323 323 323 323 323 323 324 324 323
311 312 314 315 314 313 311 308 308 309 311 315 320 321 318 319 319 316 314 315 319 324 324 321 319 320 320 322 324 323 322 322 321 322 323 323 323 323 323 323 323 323 323 323 323 322 323 323 324 324 325 324 322 322 323 323 322 324 325 324 325 325 324 324 324 324 324 324 323 323 323 322 322 322 322 322 322 322 322 322 322 322 322 323 323 323 323
311 312 314 315 313 311 309 308 309 311 311 312 315 316 316 315 315 313 313 316 321 325 324 321 320 320 321 322 322 322 322 322 321 321 323 325 324 323 323 323 323 323 323 322 322 322 323 323 322 323 325 324 323 323 324 323 322 323 323 324 324 325 324 324 323 323 323 323 323 323 322 322 322 322 322 322 322 321 321 321 320 321 321 321 322 322 323
311 312 314 314 312 309 308 309 311 312 312 313 316 318 317 315 314 314 315 319 323 323 321 321 322 321 321 322 322 322 323 322 321 322 323 325 325 323 322 322 322 322 322 322 322 323 323 322 323 324 324 324 324 324 324 323 323 323 323 324 324 324 324 323 323 322 322 322 322 323 323 323 323 322 322 322 321 321 321 320 320 320 319 319 320 321 321
311 312 314 314 311 308 309 312 313 315 317 318 319 320 318 316 316 316 316 320 323 321 319 319 320 320 321 322 322 323 323 322 323 323 323 324 325 324 322 322 322 322 323 323 322 323 323 323 323 323 324 325 325 325 324 323 323 324 323 324 324 324 324 323 323 322 322 322 322 322 323 323 322 321 321 321 321 321 321 320 319 319 318 319 320 320 320
311 313 314 313 311 310 313 315 316 319 321 321 320 319 318 318 317 316 316 318 320 320 319 319 318 318 320 320 322 324 324 323 324 324 323 323 324 323 323 323 323 324 323 323 323 323 324 323 322 323 324 325 324 323 322 322 323 324 323 323 324 324 323 323 322 322 322 322 322 322 322 321 321 321 320 320 320 320 319 319 319 318 318 318 319 319 319
311 313 313 313 312 315 318 319 319 320 322 321 319 318 317 317 318 318 319 320 320 319 320 319 318 317 318 320 322 323 323 323 323 323 322 322 323 323 323 323 323 324 324 323 324 324 323 323 322 323 324 324 323 323 324 323 323 323 323 322 323 323 323 323 322 322 322 322 322 322 321 320 320 320 320 319 319 319 318 318 318 318 317 317 317 317 318
312 313 313 314 316 318 319 320 320 320 319 318 318 319 318 319 320 320 321 321 320 319 317 317 317 318 318 319 321 322 322 322 323 324 323 323 323 323 323 323 323 323 323 324 324 323 323 323 322 322 323 323 323 325 325 323 323 324 323 323 323 323 323 323 322 322 322 322 321 321 321 320 320 320 319 318 318 318 317 318 317 317 316 316 316 316 316
312 312 313 315 318 319 320 319 319 318 318 318 320 320 320 320 320 320 320 320 320 319 317 315 316 317 317 316 319 321 322 322 323 323 323 324 323 323 324 324 323 323 323 323 323 322 322 323 322 322 322 323 323 325 326 325 324 325 324 323 324 324 324 323 323 322 322 321 321 321 321 320 319 318 318 317 317 317 317 317 316 316 316 315 315 315 315
312 313 315 317 319 320 319 317 317 318 319 320 320 320 320 320 320 320 320 320 320 320 318 315 316 317 318 318 320 321 322 323 323 323 323 323 322 322 323 323 322 323 323 323 321 321 321 321 321 321 321 320 323 326 327 325 325 325 324 324 325 325 324 324 323 322 322 321 321 320 319 319 318 318 317 317 316 315 315 315 315 315 315 314 314 314 313
313 315 317 318 319 319 317 317 318 319 320 320 319 319 320 320 320 319 320 321 321 320 319 318 318 318 318 319 321 322 323 324 323 322 323 323 321 320 322 322 321 322 322 322 321 320 321 321 321 320 319 320 325 327 326 325 325 324 324 325 325 324 323 323 322 321 320 320 320 319 318 317 317 317 316 316 315 315 314 314 314 314 314 313 313 313 313
313 315 317 318 318 318 318 319 320 320 320 319 319 319 319 319 320 320 320 321 321 321 321 321 320 318 318 319 321 322 324 324 323 322 323 323 321 320 322 322 321 321 322 320 319 319 320 321 320 318 318 323 326 325 325 325 325 324 323 323 323 322 321 321 320 319 319 319 318 318 317 316 316 315 315 315 314 314 314 313 313 313 313 312 312 312 312
312 314 316 317 318 319 319 320 320 320 320 319 318 318 319 319 319 320 320 320 321 322 323 323 322 321 320 320 321 323 323 323 322 322 322 322 321 321 321 321 321 321 320 319 318 319 320 320 318 316 319 325 326 325 325 325 324 323 322 322 321 320 319 319 319 318 317 317 316 316 316 315 315 315 314 314 314 313 313 313 313 313 312 311 311 310 310
314 315 316 318 319 318 319 319 319 319 319 318 317 317 318 318 318 318 320 320 321 322 322 323 322 321 320 320 321 322 322 322 322 322 322 322 321 321 321 321 321 319 318 318 319 320 320 319 317 318 322 325 325 324 324 324 322 321 320 320 319 319 318 318 317 317 317 316 315 315 314 314 314 313 313 313 313 313 312 312 311 311 311 310 310 310 310
316 317 317 319 319 316 315 317 318 319 320 319 318 317 317 317 317 317 318 320 321 322 322 323 323 323 322 322 322 322 322 322 322 322 322 321 321 321 321 320 319 319 319 319 319 319 319 318 315 317 322 325 325 324 323 322 321 320 319 318 317 317 317 317 317 316 315 315 314 313 313 313 313 313 313 312 312 311 311 311 310 310 310 310 311 310 310
317 317 317 319 319 317 314 314 316 318 319 319 317 317 316 316 316 318 320 321 322 322 322 323 324 324 324 323 323 323 323 323 322 322 321 321 321 321 320 320 320 319 319 319 318 318 318 316 313 316 323 325 324 323 321 320 319 318 317 316 316 316 316 316 315 314 314 313 313 313 313 313 312 312 312 311 311 310 310 311 310 311 310 311 310 310 310
317 316 314 316 318 317 316 315 316 317 317 317 317 317 316 316 318 319 321 322 323 323 324 324 325 325 324 323 324 324 323 322 323 322 321 321 321 321 319 319 320 319 319 319 319 318 316 314 315 321 325 325 323 321 319 318 317 317 316 316 315 315 314 314 313 313 313 313 312 312 312 312 311 311 310 310 310 310 310 310 310 310 310 310 310 310 310
316 314 314 315 316 316 316 317 316 315 315 315 315 316 317 317 318 319 321 322 323 324 325 325 325 325 324 323 323 323 323 322 322 323 321 320 321 321 320 320 321 320 319 319 319 317 314 316 320 324 324 322 320 319 317 316 316 315 315 314 313 313 312 312 312 313 312 312 312 312 311 310 310 310 310 310 310 310 310 310 310 310 310 310 309 309 309
315 314 315 316 316 315 315 316 315 315 315 315 315 315 316 316 318 319 321 323 324 324 325 324 324 325 325 323 323 323 323 322 322 322 321 321 321 321 320 321 321 321 319 318 317 315 316 320 322 323 321 319 318 317 316 315 315 314 313 312 312 312 312 312 313 312 312 311 311 310 310 309 309 309 309 309 309 309 309 309 309 309 309 309 309 309 309
315 316 317 317 316 315 316 315 315 315 315 314 315 316 316 318 319 321 322 323 324 325 324 324 323 323 323 322 322 323 323 323 321 321 322 322 321 321 321 320 320 320 318 317 316 316 318 320 321 320 319 318 317 316 315 314 314 314 312 311 311 311 312 312 312 312 311 310 309 309 309 309 308 308 308 308 308 308 308 308 308 308 308 308 308 309 309
315 315 316 317 316 316 316 315 314 314 314 314 315 317 317 318 321 323 324 324 325 325 324 324 324 322 320 321 322 323 323 322 322 322 322 322 321 321 321 321 319 318 317 316 316 318 319 319 319 319 318 317 316 315 315 314 313 312 311 311 311 311 312 312 312 311 310 309 308 308 308 308 308 308 308 307 308 308 308 308 308 308 308 308 308 308 308
314 315 316 316 316 316 315 315 314 314 314 314 315 316 316 317 320 323 324 324 325 325 325 324 324 322 321 321 322 323 322 322 323 323 322 322 321 321 321 320 318 317 317 316 317 318 318 319 319 319 318 317 316 315 315 313 312 312 311 311 311 312 312 312 311 310 310 309 308 308 308 308 308 308 308 308 308 308 308 308 308 308 307 307 307 307 307
Wind_Speed
22 24 24 25 26 27 28 30 31 31 26 18 10 6 2 1 2 3 6 10 8 6 2 4 1 4 4 2 3 3 3 4 5 5 6 5 4 3 4 5 4 4 3 2 2 2 3 3 3 4 6 7 7 6 5 4 4 4 2 2 2 2 3 4 5 4 1 4 4 3 2 6 9 8 9 8 7 9 8 8 7 7 10 8 6 7 3
22 23 24 25 25 26 27 29 30 29 26 20 12 4 1 2 2 2 4 8 6 5 1 2 2 5 3 3 5 4 5 7 6 7 8 6 5 4 5 5 4 4 3 2 3 2 1 3 4 3 4 5 5 5 5 4 3 2 3 2 0 2 2 3 5 6 6 6 6 6 6 8 8 5 4 5 7 8 6 6 5 6 10 10 9 8 3
22 23 24 25 25 25 26 28 30 28 23 19 10 3 0 0 1 2 3 5 2 1 3 2 2 4 3 3 5 3 4 6 5 6 7 7 6 4 4 4 3 3 2 2 3 3 1 2 3 3 4 5 5 5 6 5 4 4 5 5 3 2 2 3 6 7 6 5 4 3 4 6 4 2 1 3 8 9 7 6 6 7 8 8 10 7 4
22 22 24 25 25 25 25 26 29 27 22 16 8 3 2 2 2 2 2 3 3 3 2 2 1 3 1 2 3 2 4 5 4 5 5 6 7 5 4 3 1 2 2 2 4 4 2 2 3 3 3 4 5 6 5 5 6 4 3 5 4 2 1 1 3 2 0 2 3 3 2 2 3 2 1 3 5 7 7 8 8 8 7 8 9 7 4
22 22 23 25 25 25 24 25 27 26 21 14 7 3 2 2 1 1 1 2 2 3 3 1 1 1 1 1 1 2 2 3 3 4 4 5 5 4 5 5 2 3 2 2 5 5 4 5 4 3 2 2 3 2 3 6 6 2 3 3 3 3 2 2 3 6 6 6 7 6 3 2 3 2 1 2 3 5 9 9 5 5 8 8 6 8 8
22 22 23 24 25 25 24 24 26 24 18 12 6 2 1 1 1 2 2 1 1 3 3 2 2 2 1 1 0 1 2 3 3 3 3 3 5 3 4 6 5 5 3 1 3 4 4 5 3 2 2 1 1 1 2 6 5 2 2 1 3 4 3 2 4 8 7 7 8 7 5 5 4 3 3 1 3 4 7 6 4 4 6 4 3 9 10
22 22 22 24 24 25 24 24 25 23 16 9 5 2 1 0 2 2 1 2 2 4 3 1 2 3 2 1 1 1 2 4 4 3 2 2 4 4 3 6 6 5 3 2 2 3 2 4 4 2 2 2 1 0 1 4 5 4 1 2 2 2 2 1 1 5 7 7 8 7 5 5 5 6 6 4 3 2 1 0 4 3 3 3 3 7 4
22 21 21 23 23 24 24 23 25 24 15 6 5 4 2 1 1 1 2 1 3 3 2 2 2 2 1 1 2 2 2 4 4 3 4 2 3 3 4 7 6 5 6 4 5 5 5 4 4 2 1 2 2 2 2 3 5 5 4 3 2 2 2 2 3 4 6 5 5 5 4 2 4 7 8 7 6 4 4 4 5 3 3 2 3 6 5
21 21 21 22 22 23 23 23 24 24 16 7 4 5 5 3 3 2 2 2 2 2 2 2 2 2 1 2 3 2 3 4 5 5 5 4 4 4 4 5 3 4 7 7 7 7 4 4 5 3 3 4 3 3 4 5 5 4 5 4 3 2 3 4 4 6 6 2 2 1 0 2 2 7 10 10 9 6 5 6 6 4 2 0 4 5 4
19 21 20 20 21 21 22 22 22 23 19 12 5 5 6 3 1 3 4 2 1 2 3 2 2 1 2 3 2 2 4 4 2 2 3 3 4 5 3 2 1 3 7 8 8 5 4 5 5 3 4 5 4 3 5 6 6 5 5 4 3 3 4 5 4 6 6 3 4 5 4 5 3 5 8 8 8 8 6 5 6 5 3 1 2 1 3
17 19 19 19 19 20 21 21 20 20 20 16 8 6 8 6 2 2 3 3 3 3 4 3 1 2 3 4 4 3 4 4 1 1 2 4 4 3 2 2 1 3 6 7 5 3 4 5 4 4 4 4 5 4 4 7 7 5 5 4 2 3 4 3 3 5 6 4 4 5 5 5 1 4 5 6 7 8 7 6 6 4 4 3 2 3 3
17 18 18 18 18 18 19 19 18 16 16 15 10 7 9 7 4 3 4 3 4 4 4 1 2 3 5 5 4 4 4 4 2 1 3 4 3 2 2 2 1 3 5 4 2 4 4 4 4 3 4 3 3 3 4 6 6 5 5 5 4 3 3 2 3 4 4 3 5 8 6 2 3 5 5 5 5 5 4 5 5 4 4 4 3 1 2
16 17 17 17 16 17 17 17 16 14 12 12 9 8 10 8 4 3 3 3 3 4 3 3 5 5 6 6 5 6 6 6 5 4 3 3 2 2 2 2 3 4 3 1 3 3 3 3 3 2 2 1 1 1 4 5 5 6 6 6 5 4 3 3 3 3 3 4 7 6 2 4 5 3 5 6 4 5 3 1 4 4 3 3 2 2 4
15 16 15 15 15 16 16 16 15 13 11 9 7 6 9 9 5 3 3 4 2 3 2 4 6 7 6 7 6 7 7 6 5 4 3 2 2 3 3 2 3 3 2 1 3 4 3 2 3 3 3 4 4 2 2 2 4 6 6 5 5 5 4 3 3 3 4 6 6 4 2 3 4 3 5 5 4 6 5 1 3 4 3 3 4 4 6
15 15 15 14 15 15 15 15 14 13 11 8 6 5 7 10 7 4 4 4 2 4 3 3 6 9 8 6 6 5 5 5 4 4 4 2 1 3 3 3 2 1 2 2 3 4 3 3 4 4 3 3 1 0 0 1 1 3 4 4 4 3 3 3 3 3 3 6 5 5 6 4 3 4 5 5 5 5 4 2 1 3 4 3 5 6 7
14 15 14 14 14 14 14 15 14 13 11 8 6 4 6 10 9 5 5 4 2 4 3 2 5 7 6 4 3 2 2 3 3 3 5 4 2 3 3 2 1 1 2 3 2 3 4 4 4 3 2 1 2 1 1 2 1 3 1 2 3 2 2 3 4 4 4 6 6 5 5 2 5 5 5 7 6 3 2 3 1 4 5 1 4 6 8
12 14 14 13 13 13 13 14 14 13 11 9 8 5 5 8 11 7 5 4 3 2 4 4 4 6 5 4 3 2 1 2 1 1 2 3 2 2 2 2 2 1 2 3 3 3 4 4 4 4 1 3 2 2 1 2 2 1 1 1 2 2 2 3 5 5 3 4 5 3 1 3 6 7 7 7 6 4 4 4 1 5 7 4 0 4 8
10 13 13 13 13 13 12 13 14 14 11 9 9 6 4 6 11 8 4 4 3 1 4 3 3 2 1 0 2 3 1 1 1 1 1 3 2 1 1 0 2 2 2 3 3 3 3 2 2 3 2 3 1 2 1 0 2 2 2 2 1 1 1 2 4 4 2 3 5 2 3 4 7 9 7 6 4 4 4 2 2 6 8 6 3 3 6
9 11 12 12 13 12 12 13 13 13 12 10 9 6 4 6 10 8 4 3 3 1 4 2 2 1 1 1 2 3 1 1 1 2 2 2 2 1 1 1 1 1 2 3 3 2 2 2 1 2 1 4 1 1 1 0 2 2 2 2 1 1 1 1 2 2 1 2 4 2 4 4 9 9 5 5 4 3 2 4 5 7 7 5 4 2 4
9 11 11 11 12 12 12 12 13 13 12 10 8 6 5 6 9 8 4 3 3 1 4 3 1 1 1 1 1 2 2 2 2 2 2 2 2 3 4 3 2 2 3 3 2 2 2 2 3 1 1 3 2 1 1 1 0 2 3 2 2 3 2 1 1 1 2 3 4 2 2 5 10 10 4 3 4 2 4 6 6 5 5 4 3 1 2
10 10 10 11 11 11 11 12 12 12 12 10 8 6 5 6 8 9 5 3 4 2 3 2 1 1 1 1 2 2 2 1 1 1 1 3 2 3 2 2 1 1 1 1 1 1 1 0 2 1 1 2 2 1 0 2 3 2 2 3 1 2 3 2 2 2 3 2 0 2 3 5 9 8 4 5 5 4 5 6 5 5 4 2 1 1 1
10 10 10 10 10 10 11 11 11 12 12 10 7 4 4 5 9 10 5 3 5 3 1 1 1 2 2 2 2 3 3 4 4 3 2 1 2 2 2 1 1 1 1 1 1 1 1 1 1 2 2 2 2 1 0 2 2 4 2 2 1 3 3 3 2 2 2 3 4 4 3 3 5 5 4 5 5 5 5 5 4 4 3 2 1 3 4
9 10 11 10 9 10 11 11 11 11 11 9 6 4 4 5 8 8 4 3 4 4 2 2 2 3 2 2 1 0 1 2 2 2 3 2 2 2 2 1 1 1 1 2 3 1 1 2 0 1 1 1 1 2 2 3 1 2 2 1 2 3 1 2 2 1 2 2 3 3 3 4 4 4 4 4 6 5 5 5 3 4 4 3 3 6 8
9 11 11 9 9 9 10 11 11 10 10 9 5 3 4 6 7 6 3 3 3 2 3 4 4 3 5 5 3 3 3 3 2 2 1 3 3 2 2 1 1 1 2 0 3 2 0 1 1 2 1 1 1 3 3 2 0 1 1 2 4 3 2 3 2 1 1 2 3 4 3 4 4 3 4 4 5 6 6 5 5 5 4 4 6 7 9
10 11 11 9 8 9 10 11 11 10 9 7 5 2 3 5 6 5 2 3 2 2 4 5 4 3 3 4 4 3 3 2 1 2 1 2 4 3 2 5 2 1 3 2 1 2 2 1 1 3 1 1 1 3 1 0 1 0 2 2 3 3 3 3 1 2 1 2 5 4 3 4 5 4 4 4 6 7 7 6 5 5 6 6 6 5 6
10 12 12 9 7 8 9 10 11 10 8 6 4 2 2 3 4 4 3 3 2 2 3 4 5 4 4 6 5 2 1 2 2 2 1 1 2 1 5 8 4 3 4 3 1 2 1 1 2 3 1 1 1 2 1 1 0 1 3 1 4 2 3 1 0 3 3 3 5 5 4 4 5 6 6 5 5 6 8 7 6 6 6 6 4 3 2
11 12 11 8 7 7 8 9 10 10 8 5 4 3 3 2 3 3 3 3 2 2 4 4 4 5 5 4 3 1 2 3 4 4 3 4 4 5 7 7 5 4 4 3 1 1 2 2 2 2 0 1 1 2 1 1 1 3 4 2 3 3 3 1 1 5 3 2 4 3 2 2 5 7 7 7 6 6 8 8 8 7 5 4 3 2 1
11 12 10 8 6 6 8 9 10 9 7 5 3 3 3 3 3 2 1 2 2 2 3 3 3 4 4 4 2 2 4 5 5 5 5 6 6 7 7 6 4 3 3 2 1 2 3 2 1 1 1 1 2 2 1 1 3 4 3 3 4 2 2 1 3 4 2 5 5 2 1 2 6 6 6 6 6 7 8 9 9 8 7 5 4 3 2
10 11 9 7 6 7 8 9 9 8 6 3 2 3 4 4 4 3 1 1 2 4 3 1 2 3 3 3 3 3 5 7 7 6 6 7 6 6 6 4 2 1 1 1 1 1 1 1 1 2 2 1 2 2 2 3 4 2 1 3 2 1 1 2 4 4 2 4 4 3 2 4 6 5 5 6 5 6 7 8 8 8 8 7 7 6 4
9 9 8 6 6 7 7 8 8 7 4 2 3 4 5 4 4 4 2 1 1 3 3 3 3 3 3 3 3 4 7 9 8 7 7 7 6 5 4 3 2 1 1 1 1 0 1 1 1 2 2 1 3 2 2 3 3 2 4 4 2 1 2 1 2 2 1 4 5 4 4 5 6 4 4 5 5 5 6 7 7 7 7 7 7 7 6
9 9 7 5 5 6 6 7 8 5 3 4 4 4 3 2 3 4 3 1 1 2 4 3 2 2 3 2 2 3 7 9 9 7 6 5 5 5 3 2 1 1 1 1 1 0 1 1 2 2 3 1 3 3 2 3 4 1 5 5 4 3 3 3 2 2 2 4 4 4 4 4 3 2 3 5 5 5 5 5 7 7 6 6 6 6 6
9 9 7 5 6 6 6 6 6 4 5 7 5 3 3 1 1 3 3 1 0 3 4 3 3 3 3 4 3 4 6 8 8 6 4 3 3 4 3 1 1 1 1 1 1 1 1 1 1 2 3 2 2 3 3 5 4 0 4 5 4 4 4 3 3 3 3 3 3 3 3 3 1 1 2 4 4 4 4 4 5 4 4 4 5 5 5
9 8 7 6 6 6 6 5 5 4 5 7 7 4 2 1 2 3 3 2 1 3 3 3 4 3 2 3 5 6 7 6 6 6 3 1 2 4 3 2 2 2 0 2 2 1 0 1 2 2 2 2 2 4 4 4 3 0 3 5 5 5 4 4 4 4 3 3 3 4 3 1 1 2 3 3 3 3 3 3 3 3 3 3 4 5 5
9 8 7 6 6 6 5 4 3 3 4 5 4 3 3 3 3 3 3 1 2 3 2 3 4 4 3 3 4 6 7 5 6 6 4 1 1 4 3 3 3 3 2 2 2 2 2 2 2 2 2 3 3 4 4 4 2 1 3 5 5 5 5 5 5 5 4 3 2 1 1 2 3 3 3 3 2 2 2 2 2 2 2 2 3 4 4
9 8 7 6 6 5 3 2 4 5 4 4 4 6 6 4 3 3 2 1 2 3 3 2 4 3 4 5 5 6 6 5 4 4 4 2 1 2 2 3 4 3 1 1 2 4 3 1 2 3 2 3 4 5 4 2 2 4 5 6 6 7 6 6 6 5 4 3 3 2 2 2 3 3 2 1 1 1 1 1 2 3 2 2 2 3 4
8 6 6 6 5 3 2 3 5 5 4 4 6 7 5 3 3 1 1 1 2 3 2 2 4 5 5 5 4 4 5 6 4 3 3 3 3 2 3 4 4 1 1 2 4 4 2 1 2 3 3 4 5 4 2 1 3 5 6 6 7 7 7 6 6 5 5 4 4 3 3 4 4 3 2 2 1 1 2 2 2 2 2 2 2 2 2
8 6 5 4 3 2 3 4 4 5 4 6 9 7 4 3 3 2 2 3 2 2 2 3 4 4 4 3 2 4 6 6 4 4 4 4 3 3 3 4 3 1 2 4 4 2 1 2 3 5 5 4 4 2 1 2 3 4 5 5 6 7 6 4 5 6 6 6 5 5 4 4 4 3 3 3 2 2 2 2 2 2 3 3 3 3 3
7 6 4 3 4 4 3 3 5 6 7 9 9 5 3 3 3 3 3 3 2 2 2 4 4 3 3 3 2 4 4 4 4 4 4 3 3 3 3 3 1 1 2 3 2 2 2 3 3 5 5 4 4 4 4 5 4 3 4 5 5 6 6 5 6 7 7 6 6 6 6 6 6 5 4 4 3 3 3 3 3 4 4 5 5 5 5
6 4 3 5 4 1 2 6 9 10 9 8 5 3 2 3 3 2 3 2 2 2 3 4 5 4 4 5 4 2 1 3 5 5 4 3 2 2 3 3 2 1 4 3 3 3 4 4 3 4 5 4 4 4 5 5 5 4 4 4 5 6 6 6 6 7 6 5 3 4 4 5 5 4 4 3 3 3 4 5 5 6 6 6 7 7 7
5 4 4 4 2 3 5 10 12 9 6 4 3 2 2 2 3 2 2 3 3 3 3 3 4 3 4 5 5 3 2 2 4 4 4 3 1 1 2 2 2 2 5 4 3 3 4 4 2 3 4 2 2 3 3 4 6 5 5 5 5 6 7 6 5 5 3 1 1 1 2 2 2 3 3 4 4 4 5 6 6 7 7 7 7 8 9
5 5 3 2 4 6 8 10 9 5 3 3 3 2 2 2 2 2 2 4 4 3 2 3 4 5 5 6 5 3 3 1 1 2 3 3 1 2 3 2 1 3 5 3 3 2 4 4 3 4 3 1 4 4 4 4 5 6 6 6 6 7 7 6 6 5 4 3 3 2 3 3 4 4 5 5 5 6 7 7 8 8 9 9 9 10 11
5 4 3 5 7 8 7 7 5 3 2 2 2 2 2 2 2 2 3 4 3 2 3 4 3 3 5 5 3 2 2 2 1 2 3 3 2 2 3 2 2 4 4 1 2 2 4 3 4 5 2 4 5 5 4 4 5 6 7 7 7 7 7 7 6 5 5 4 3 3 4 5 5 6 6 7 8 8 9 9 10 10 10 11 11 12 13
6 6 5 6 6 6 5 4 3 2 2 1 2 2 2 3 3 3 3 3 2 2 3 4 2 2 4 4 3 2 2 1 2 2 3 2 2 2 3 3 3 3 1 1 2 4 4 4 5 4 2 5 5 4 4 5 6 6 7 7 7 7 7 6 6 5 5 4 4 4 4 5 6 7 7 8 9 10 10 10 11 11 12 13 14 14 15
5 5 4 4 4 3 3 2 2 2 2 2 3 3 4 5 5 4 3 3 3 4 5 5 5 5 5 5 3 3 3 2 2 3 3 3 3 3 4 4 3 1 1 2 5 5 4 5 5 2 3 5 4 5 5 6 6 7 7 7 8 8 7 6 6 5 4 4 4 4 5 6 8 8 9 10 10 11 12 12 13 14 15 15 15 15 15
4 4 3 3 2 1 1 2 2 3 3 3 3 4 4 4 4 4 3 2 2 4 5 6 5 5 6 5 3 3 3 3 3 3 3 3 4 5 3 1 1 1 3 5 5 4 4 4 4 3 4 5 5 6 6 6 7 7 8 8 8 8 7 6 5 4 3 3 4 5 6 8 8 9 10 10 11 13 14 15 15 15 15 15 15 15 15
3 2 2 2 1 1 2 2 3 3 4 4 4 5 4 3 2 1 2 2 2 4 6 6 6 6 6 5 2 2 3 3 3 3 3 3 4 3 1 0 1 4 5 6 5 5 5 4 2 3 5 6 7 7 7 7 7 8 8 7 7 7 6 4 3 3 3 3 4 5 6 7 8 9 10 11 12 13 14 14 13 13 13 13 14 14 15
2 1 1 2 2 3 3 3 3 3 3 3 4 4 3 2 1 0 1 1 2 3 5 5 4 5 5 4 2 2 3 3 3 3 3 3 3 2 1 3 5 5 5 6 6 6 5 3 2 4 6 7 8 8 8 8 7 8 7 6 6 5 5 4 3 2 2 2 3 4 5 7 8 9 10 11 11 12 11 11 12 12 13 13 14 14 15
1 2 2 2 2 3 4 4 4 3 3 2 2 2 1 1 2 3 3 2 2 4 6 6 5 5 5 4 3 3 4 4 4 3 2 3 3 2 2 4 5 5 5 5 6 5 3 1 3 5 7 8 8 9 8 8 8 8 7 6 6 5 4 3 3 2 1 2 3 3 5 6 8 9 9 10 10 10 10 10 11 11 12 13 13 14 14
1 2 2 2 2 2 3 2 3 4 4 3 2 2 2 3 4 4 3 2 3 4 4 3 3 3 3 2 3 4 4 4 4 4 3 4 5 4 4 5 6 5 5 5 4 3 1 3 5 6 7 8 8 8 8 8 8 8 7 7 6 6 5 4 3 2 1 1 2 3 5 6 7 8 8 9 10 10 10 10 10 10 11 12 12 13 13
2 2 2 3 3 3 2 2 3 4 4 4 4 3 4 4 4 4 4 3 4 4 3 1 0 1 1 1 2 3 3 3 3 4 5 6 6 5 5 6 6 5 4 4 3 2 1 4 5 6 8 8 8 8 9 8 8 8 8 8 7 6 5 4 4 3 2 1 1 3 4 6 7 7 7 8 8 8 8 8 8 8 9 9 10 10 11
2 2 3 4 4 3 2 2 3 3 3 3 3 3 3 4 4 3 3 4 5 5 5 3 2 2 3 3 3 3 2 2 3 5 6 6 5 5 7 7 6 5 4 2 1 1 2 4 5 6 7 9 8 8 9 9 9 9 9 8 7 6 5 5 4 4 3 2 1 2 3 4 5 5 5 5 5 6 5 4 4 5 6 6 5 6 6
2 3 2 3 3 4 4 4 3 2 2 2 1 2 2 3 2 3 3 5 5 5 4 3 3 3 4 4 3 3 3 3 4 6 6 5 5 6 7 6 4 3 3 1 2 3 3 4 5 7 8 9 9 10 10 11 10 10 9 8 7 7 6 6 5 4 4 3 2 2 3 3 3 2 2 2 2 3 2 2 3 4 4 3 4 4 4
Wind_Direction
4 2 0 1 2 1 360 358 356 354 357 2 350 323 264 269 60 70 353 342 314 278 130 115 121 77 86 108 71 39 11 23 26 20 19 22 32 48 51 39 32 39 34 52 104 69 60 74 77 90 92 66 39 14 355 306 268 280 290 102 82 271 250 260 251 230 173 87 137 188 242 237 231 225 226 229 227 221 223 238 235 222 227 225 236 246 194
4 2 2 2 2 2 1 359 357 354 356 358 344 309 179 35 62 93 1 345 300 267 94 107 111 92 112 122 89 77 44 31 23 25 30 23 11 32 55 46 38 38 20 39 58 28 53 85 70 87 96 72 43 16 5 331 298 340 2 12 213 239 246 255 243 213 184 166 167 173 190 210 220 221 232 268 266 247 241 257 259 243 231 217 221 235 180
4 3 3 3 2 3 1 360 359 355 353 355 345 311 179 159 172 129 40 18 341 341 32 18 100 103 120 93 76 94 83 51 19 16 30 28 13 24 54 38 32 51 43 91 67 27 40 96 91 103 98 90 70 34 20 358 358 32 8 328 288 256 258 260 253 233 208 189 180 177 181 191 204 223 246 263 253 243 243 243 235 236 233 221 229 236 129
2 4 3 3 3 3 3 1 359 355 353 353 340 303 281 227 192 152 123 84 65 83 46 336 95 106 125 99 62 39 85 82 38 9 25 34 22 22 40 12 351 72 64 107 85 56 63 102 135 128 103 100 73 32 19 26 29 28 333 298 272 243 194 257 265 254 221 89 84 50 35 168 175 174 199 218 223 233 240 236 235 236 229 226 234 232 162
1 3 4 4 3 3 4 4 1 355 352 351 332 281 288 257 207 32 109 131 113 128 117 25 66 74 345 16 36 22 77 98 68 31 28 25 7 9 40 22 19 58 43 80 84 73 84 100 113 107 89 111 92 47 24 43 35 307 251 269 268 237 168 110 95 97 86 86 95 86 71 95 101 97 130 180 183 213 227 232 266 272 240 231 211 206 211
359 1 4 4 2 4 4 6 5 358 352 351 333 264 318 310 136 40 336 261 121 108 84 46 73 92 52 9 341 47 70 71 64 52 42 21 354 349 55 45 39 49 21 13 88 92 105 104 94 74 74 80 197 167 72 46 31 293 221 57 301 257 186 138 112 111 101 98 107 107 99 87 76 61 45 72 162 200 226 236 338 332 259 258 192 206 223
357 358 3 4 2 4 5 7 9 2 356 357 339 314 57 103 118 99 289 292 60 72 70 70 104 93 79 84 80 52 63 73 66 25 345 37 20 357 50 55 44 54 42 18 77 64 63 99 92 52 54 42 353 48 77 34 23 7 34 66 348 289 185 173 199 142 125 113 114 113 106 95 84 67 45 44 103 116 159 48 19 357 302 307 236 206 195
356 355 1 3 2 5 5 8 11 8 6 10 355 4 32 9 55 97 199 150 89 100 125 188 160 112 154 143 92 52 44 76 88 37 349 28 68 40 65 65 46 52 64 65 71 46 14 60 83 19 352 56 30 34 32 0 3 14 22 33 2 285 200 221 264 200 152 118 105 113 111 94 82 68 46 41 56 64 63 42 13 348 350 341 212 176 122
357 354 357 1 3 5 7 8 12 14 18 24 21 28 21 358 6 325 250 144 121 166 150 202 219 147 160 141 115 125 88 80 97 77 29 25 61 54 55 67 56 64 72 64 61 57 30 49 68 37 28 51 41 38 30 354 340 9 21 5 343 310 229 218 244 227 187 125 15 59 1 267 124 69 38 31 37 40 52 43 13 356 0 230 190 174 135
357 355 354 358 2 7 8 10 12 18 26 29 22 25 11 344 322 300 275 178 149 203 169 195 241 125 86 98 116 133 113 108 132 103 73 58 54 40 19 12 0 84 71 46 29 32 47 69 79 79 75 76 73 62 47 29 11 5 2 344 352 346 274 234 238 242 216 214 296 307 297 263 203 67 26 19 30 34 47 52 31 12 344 274 203 44 71
356 353 352 355 2 7 10 12 13 18 30 35 25 18 10 340 295 298 270 210 160 191 198 205 219 118 114 141 149 136 129 140 232 301 123 109 64 37 19 334 308 81 56 27 11 30 68 87 101 107 107 102 92 75 53 50 39 13 354 336 335 338 299 255 230 252 231 211 266 278 258 244 187 56 13 359 14 18 31 50 51 38 3 344 333 359 61
355 352 350 352 359 7 10 12 15 17 28 37 31 16 9 343 300 285 273 231 162 178 213 180 105 138 151 154 142 125 127 123 95 63 114 111 83 39 27 334 319 74 43 22 102 129 123 123 131 131 123 103 78 65 49 48 45 29 15 352 323 304 292 263 223 248 242 200 234 242 228 190 80 57 17 352 342 347 17 55 55 40 15 356 320 293 150
352 350 350 351 355 5 9 9 14 16 18 31 31 11 7 355 311 289 296 262 186 180 200 128 117 152 155 139 128 122 116 108 104 101 92 90 86 72 59 18 25 43 15 355 158 186 192 149 153 175 163 180 253 61 51 43 34 26 24 11 346 315 283 261 231 242 243 215 219 229 212 103 104 78 25 8 338 332 336 107 65 29 4 1 8 115 154
351 348 347 350 351 358 5 6 10 12 10 18 20 3 8 4 329 308 312 273 208 149 172 152 145 160 152 134 136 134 126 130 134 119 97 76 60 64 65 47 36 26 332 249 192 220 232 195 200 209 196 213 226 196 100 58 37 24 20 18 1 330 296 269 235 221 242 238 222 214 192 151 143 95 33 14 354 352 333 272 73 34 1 41 70 119 150
354 350 346 348 349 351 359 3 5 8 7 7 4 348 1 6 346 314 305 291 210 160 185 183 155 156 152 143 150 151 144 152 152 130 124 129 82 76 68 47 33 356 261 245 225 221 228 240 237 227 216 226 241 143 148 213 97 54 14 357 356 338 311 300 266 216 239 252 229 215 224 205 124 71 35 2 348 351 325 274 94 25 359 69 107 132 151
353 353 348 346 344 343 353 359 359 2 2 1 359 333 336 1 0 321 289 297 243 182 156 116 136 149 150 146 158 191 173 154 158 159 149 148 138 103 86 68 22 279 231 216 222 229 230 236 248 257 256 19 12 351 321 306 199 124 88 326 328 312 254 265 263 234 234 249 235 226 234 206 63 38 3 349 349 350 299 234 150 11 345 3 127 141 156
344 349 348 343 339 337 346 353 354 356 358 357 357 336 302 344 2 342 288 285 269 194 107 108 152 163 159 159 163 186 189 140 175 234 139 124 137 126 113 144 161 223 246 217 199 214 223 221 236 249 190 72 352 287 318 323 302 100 81 312 312 308 236 235 249 238 227 251 249 235 167 78 39 5 346 350 352 323 265 223 131 3 334 322 36 154 162
331 341 344 342 339 334 338 348 350 349 353 352 349 338 283 317 353 352 305 277 272 185 112 134 191 183 118 70 125 131 154 159 195 241 133 122 143 125 74 151 168 178 236 238 212 206 208 197 231 253 132 101 312 280 118 1 316 25 6 313 291 313 295 269 260 245 212 242 248 215 102 60 7 351 350 353 330 275 260 255 2 338 320 314 307 195 167
321 331 336 337 340 335 334 344 346 344 348 349 346 338 282 304 345 351 316 284 282 159 113 128 243 259 23 19 110 122 132 309 267 236 207 152 124 102 61 300 245 197 211 226 220 212 204 158 155 273 185 139 162 279 106 50 338 12 334 293 293 323 273 227 256 277 297 252 252 220 116 53 351 335 338 341 302 252 305 346 325 312 309 301 284 232 174
317 325 330 332 335 332 332 340 343 340 343 346 347 338 293 304 340 347 329 305 292 226 122 120 266 237 161 196 145 139 184 206 210 258 273 97 118 203 208 185 182 188 191 209 212 215 230 159 137 232 250 125 130 231 159 149 80 4 329 308 348 346 314 237 132 323 280 234 245 249 122 48 356 332 326 4 351 345 353 337 319 319 316 292 284 283 178
321 328 331 330 330 327 327 335 340 338 338 342 346 335 293 302 335 340 330 291 276 262 108 104 283 253 205 305 350 353 339 34 84 305 329 81 113 253 256 100 106 201 199 219 210 185 276 121 129 189 299 87 134 221 201 159 155 123 321 297 328 351 321 341 60 20 292 251 166 32 44 34 6 353 21 38 13 353 334 323 324 338 337 304 317 39 138
325 331 325 324 328 322 318 328 338 336 334 338 343 330 294 306 330 336 333 271 264 285 10 11 311 299 308 332 339 331 351 28 36 355 325 123 155 269 300 94 120 0 6 289 252 149 170 196 169 189 187 156 172 173 264 279 182 135 165 257 349 34 352 341 11 25 357 7 45 56 48 35 27 29 37 25 6 351 333 320 317 334 349 356 25 66 81
324 327 320 319 326 317 310 323 336 336 332 334 339 326 304 313 327 333 328 268 259 264 268 256 216 193 173 139 130 137 101 95 76 21 328 292 191 204 245 224 144 88 66 294 309 8 159 182 244 277 198 157 223 199 199 251 261 123 146 191 84 63 7 292 317 53 86 62 55 71 66 49 53 69 62 26 11 7 357 353 1 4 5 31 89 103 101
319 323 321 318 320 314 306 315 329 334 331 328 327 316 305 318 335 338 306 259 248 220 202 202 196 173 143 135 138 141 133 132 124 114 299 284 260 230 199 159 175 169 155 265 335 343 311 101 52 271 235 118 288 255 225 223 216 106 180 173 136 125 199 248 281 317 188 142 98 84 67 48 49 77 95 63 34 28 23 27 42 36 32 66 100 121 127
314 323 325 319 312 306 300 307 322 332 330 320 318 322 309 321 340 348 310 267 259 238 215 195 170 105 100 135 150 147 140 144 160 168 195 257 275 286 105 109 91 31 115 130 231 238 218 170 202 234 221 123 263 271 280 9 68 115 261 236 127 135 212 237 238 259 263 104 104 103 90 73 58 52 66 62 45 44 47 51 60 59 63 81 98 121 138
307 323 326 316 302 297 296 302 315 326 326 312 299 284 259 294 332 349 328 290 272 266 252 208 149 120 151 170 160 148 177 180 174 171 136 155 243 268 113 119 111 82 112 140 226 246 236 243 243 246 228 146 252 283 331 16 55 236 259 335 76 125 205 197 199 246 238 138 136 151 148 116 88 66 59 57 51 55 59 63 71 73 75 83 82 77 107
296 318 323 312 298 297 295 296 308 320 321 302 277 248 226 266 327 354 338 304 269 218 231 219 151 130 161 174 142 146 204 192 172 154 117 106 121 129 132 139 140 135 146 163 176 216 238 235 234 256 42 104 209 267 327 18 262 251 246 162 135 208 230 157 226 251 257 97 115 141 163 116 90 74 65 60 59 66 68 65 65 67 67 70 69 53 16
289 313 318 305 298 301 292 292 306 317 310 286 263 244 237 255 282 310 347 322 302 277 258 233 136 131 160 169 152 174 195 194 186 161 124 112 119 127 132 140 149 161 179 191 177 201 231 230 184 123 94 121 210 212 183 183 230 252 248 167 168 238 289 288 271 286 11 57 70 71 40 86 90 83 70 59 53 60 67 66 63 65 64 58 53 45 12
287 310 313 295 293 298 289 290 307 314 299 269 234 243 246 243 253 273 312 37 311 300 293 246 168 161 154 138 142 174 188 190 187 170 141 132 130 124 122 126 138 148 142 158 201 198 163 86 39 70 86 331 277 206 187 223 231 224 118 121 135 11 0 316 307 322 44 76 68 55 62 99 103 92 69 59 49 50 61 61 55 57 60 58 54 47 35
289 312 314 294 289 292 286 292 306 306 275 217 206 233 231 210 212 232 232 107 333 293 273 234 201 171 121 102 127 164 176 183 185 174 160 151 138 126 125 121 107 113 149 171 237 233 127 129 105 98 94 357 292 247 227 257 250 151 110 119 138 143 147 154 344 350 86 91 78 77 89 102 110 107 85 69 55 54 62 60 53 50 46 46 52 48 38
291 311 316 301 289 286 284 295 304 291 221 196 216 242 237 175 173 200 208 189 338 280 263 248 209 157 143 148 162 160 168 176 173 157 147 143 132 130 141 145 139 188 232 203 112 35 257 180 153 148 135 140 282 276 269 271 265 172 126 140 162 167 161 142 100 84 106 110 114 125 121 117 133 153 115 88 65 60 65 64 60 55 43 42 52 50 43
289 307 314 307 289 279 280 295 298 260 203 202 225 270 332 15 180 202 207 186 265 268 257 229 201 193 176 163 159 160 169 172 168 156 149 151 154 149 149 165 158 100 357 299 190 193 260 268 219 193 150 148 251 266 253 259 272 140 127 151 166 164 166 160 145 141 143 146 168 198 197 182 208 300 93 94 75 61 62 56 54 53 47 49 57 54 48
286 301 305 300 292 282 282 291 282 236 203 210 227 251 296 282 190 179 175 173 240 273 277 247 214 203 168 140 149 165 177 180 179 181 178 150 180 184 169 164 169 145 126 251 231 180 194 245 243 218 148 154 233 258 253 256 275 329 150 172 172 168 177 179 172 173 177 180 217 260 269 235 127 91 98 107 97 74 59 43 30 31 32 36 46 45 40
280 296 295 290 294 292 287 279 242 200 193 205 204 185 173 170 140 128 141 195 248 247 254 258 237 196 156 156 170 174 187 201 198 196 191 138 189 209 190 171 193 202 202 230 240 220 219 238 245 231 191 186 224 250 255 249 241 203 184 180 173 175 183 187 192 199 195 189 207 283 9 96 134 146 149 139 123 103 65 31 7 2 3 12 29 28 15
272 289 287 283 295 300 286 230 186 185 197 198 169 155 159 160 135 127 142 208 261 232 198 224 242 210 183 197 191 174 188 209 208 200 195 166 175 220 210 198 213 219 180 194 243 239 225 215 243 238 207 187 213 236 251 241 194 185 191 186 179 183 194 201 207 204 184 180 195 166 131 156 182 190 196 182 133 59 0 353 353 344 335 350 19 12 356
267 279 279 284 295 292 226 183 181 188 194 176 159 158 162 149 122 126 169 210 268 267 237 210 228 223 215 213 187 155 180 203 197 179 185 180 179 201 224 229 230 206 134 214 243 244 208 142 236 239 209 203 230 242 243 230 202 193 198 198 188 192 207 216 210 193 171 169 184 180 179 205 215 211 219 223 199 318 302 299 319 330 322 323 339 340 333
261 271 278 285 279 222 183 173 189 202 182 150 146 147 148 143 144 175 196 199 227 275 282 252 234 227 239 248 171 149 181 199 188 178 196 203 195 191 216 234 228 174 190 228 239 236 148 149 240 250 233 229 253 250 160 195 215 202 201 203 194 197 209 203 182 179 175 175 185 191 197 211 214 210 221 226 215 233 269 278 292 304 304 298 297 300 302
256 266 268 249 222 203 176 166 182 181 156 142 144 149 155 173 193 199 186 187 193 191 229 249 242 220 237 250 168 148 181 199 189 192 204 204 194 191 208 223 215 202 238 232 171 128 171 197 231 256 257 251 252 237 206 204 208 196 200 206 196 193 192 177 173 186 194 198 204 206 207 217 222 218 219 223 222 233 255 261 266 274 278 278 280 283 281
243 246 232 219 215 200 121 145 155 151 142 142 165 196 186 186 211 204 170 180 202 178 189 230 235 218 218 216 183 146 205 216 199 199 200 195 200 210 209 205 189 222 249 236 151 156 227 230 218 248 263 252 233 224 209 201 195 184 183 194 193 189 186 180 186 204 218 233 239 222 217 234 242 229 218 220 225 233 242 247 252 257 262 267 272 275 275
215 211 211 206 180 96 114 138 144 146 152 174 202 222 209 199 211 199 170 192 209 189 179 213 217 205 223 229 203 169 180 228 220 209 194 177 176 238 219 206 186 218 244 239 156 167 246 256 227 239 262 249 166 148 154 181 190 182 172 177 179 178 179 181 183 194 205 211 186 180 198 234 248 231 224 231 239 245 250 253 253 253 257 261 264 267 271
198 209 211 157 122 118 130 142 150 164 195 199 191 206 219 205 197 200 206 211 209 190 174 198 199 186 202 227 222 182 165 204 279 244 199 166 148 235 223 196 174 242 250 235 133 166 244 256 243 247 261 116 118 130 143 164 173 168 165 166 162 163 172 175 173 175 182 181 183 196 208 218 227 236 245 252 257 260 263 264 261 259 260 262 264 266 271
202 199 155 118 127 139 146 157 173 188 198 195 196 210 219 209 196 205 216 223 225 188 174 192 203 177 172 189 197 160 146 171 220 228 205 170 165 234 226 173 180 242 248 150 119 208 235 238 248 253 224 125 127 141 152 161 162 159 159 159 157 161 170 173 170 175 187 196 208 220 226 235 243 250 256 262 264 264 265 265 265 264 265 268 270 272 273
191 174 152 141 148 159 170 187 194 180 171 185 187 187 201 212 212 210 209 211 221 191 167 168 159 122 142 167 164 101 104 162 214 223 207 176 171 213 217 199 212 238 235 118 204 231 224 226 248 253 133 124 139 151 149 152 153 150 151 154 156 160 166 173 178 185 190 202 222 235 242 253 260 261 263 265 265 264 264 264 264 267 271 273 274 274 274
168 165 172 173 165 165 187 204 196 185 198 209 207 206 206 204 203 206 201 184 182 181 172 171 176 169 162 168 170 142 134 167 211 208 189 177 181 202 213 212 210 198 150 215 235 237 228 238 251 241 123 128 145 149 147 150 149 146 148 152 156 159 164 170 178 185 190 203 230 249 258 263 266 266 265 263 262 265 268 270 270 272 274 274 274 273 273
168 166 170 167 148 159 214 196 186 211 219 209 209 221 226 215 203 199 184 159 168 170 165 170 181 172 153 152 170 170 156 166 194 198 190 193 203 212 218 211 154 175 222 240 243 239 235 240 236 188 160 158 153 149 153 156 151 148 149 151 155 161 167 170 176 192 213 235 251 261 265 267 269 269 269 269 270 272 274 275 276 276 275 275 275 274 273
187 166 161 169 177 221 222 183 179 213 224 211 210 225 239 244 232 180 117 116 163 167 163 168 173 163 153 154 165 166 161 171 185 188 192 206 210 205 191 84 210 228 243 249 246 241 243 244 209 148 150 151 147 146 149 150 149 151 153 152 155 160 161 165 182 211 235 253 266 273 277 277 276 277 277 278 278 277 276 277 277 276 274 275 276 276 276
184 157 213 209 180 190 215 212 209 226 237 227 225 230 243 278 295 156 128 153 169 153 150 156 157 152 155 165 169 165 175 190 189 181 196 218 211 176 174 227 234 237 240 239 237 240 242 232 153 125 132 141 145 146 147 148 153 155 154 151 153 155 158 170 190 208 231 261 275 279 281 282 282 282 283 283 282 280 280 279 278 276 276 276 277 278 278
170 159 227 223 183 189 210 218 225 236 236 229 227 226 243 284 246 197 171 169 176 160 158 163 164 159 163 179 190 182 181 191 191 185 200 223 207 178 201 231 236 237 233 230 237 247 243 180 124 123 133 142 146 147 149 153 157 155 154 153 152 152 158 168 173 184 222 263 281 286 289 290 290 288 286 284 282 281 282 284 285 285 284 282 281 280 278
214 191 229 235 222 216 214 224 248 245 226 211 210 208 210 227 221 188 160 165 185 172 159 162 178 173 161 171 192 189 185 192 196 189 197 212 209 203 214 227 229 229 228 230 240 252 227 103 108 124 138 144 148 150 153 155 155 153 152 151 148 147 155 163 164 171 204 264 307 309 303 300 296 291 288 286 287 288 291 293 292 289 285 283 282 281 279
220 222 230 229 228 211 172 196 243 239 214 200 202 207 212 217 206 178 166 177 179 164 148 138 170 119 109 122 199 203 199 200 196 194 206 217 220 222 230 234 232 231 230 229 236 243 125 113 123 138 144 146 151 154 151 149 149 148 145 143 141 142 148 154 154 151 136 85 3 324 310 304 299 295 293 294 294 294 293 292 291 290 289 289 289 288 288
207 236 237 233 236 224 184 212 254 254 228 206 193 185 200 212 198 171 169 180 181 180 181 178 154 137 153 175 194 197 186 190 203 211 219 223 220 222 231 236 237 242 245 235 191 116 117 131 141 149 149 150 154 153 148 146 147 146 143 142 141 141 144 146 143 134 118 95 44 332 316 312 308 301 296 293 291 287 284 292 309 316 314 312 313 312 312
207 230 229 226 238 242 243 254 268 277 266 243 192 166 198 208 175 151 175 193 195 199 198 181 165 172 184 191 197 193 181 194 213 220 221 221 218 224 236 244 248 260 273 272 113 118 129 139 144 149 151 151 151 149 147 146 147 146 146 146 143 144 146 143 131 119 106 86 46 345 326 321 311 290 275 282 301 310 322 349 2 359 353 356 9 17 19